Back to catalog

STARLINK-36721

AliveCommunicationsVLEO
NORAD 67916·PAYLOAD·🇺🇸 United States

Launched Feb 22, 2026 from Vandenberg Space Force Base

Loading…

Next Passes (next 24 hours)

TLE

FreshSource: CelesTrak SupGP

Epoch: Sep 14, 2026, 15:53 UTC

1 67916C 26036N   26257.66229167 -.00026833  00000+0 -97222-3 0  2572
2 67916  43.0015 257.7814 0001317 269.4629 174.3868 15.27580648    12

Track STARLINK-36721 in real time with AllMySat

Download on the App Store